This is the latest recevied weather packets stored in our database for station/object EA3FL-15. If no packets are shown the sender has not sent any weather packets the latest 10 day(s).
| Time | Temp. | Humidity | Pressure | Rain* | Wind** | Luminosity | Snow |
|---|---|---|---|---|---|---|---|
| 1777232401 | 20° C | 100% | 1021.9 hPa | - | - | - | - |
| 1777231501 | 20.56° C | 100% | 1021.6 hPa | - | - | - | - |
| 1777230643 | 20.56° C | 100% | 1021.5 hPa | - | - | - | - |
| 1777230601 | 20.56° C | 100% | 1021.5 hPa | - | - | - | - |
| 1777229701 | 20.56° C | 100% | 1021.5 hPa | - | - | - | - |
| 1777228801 | 21.11° C | 100% | 1021.3 hPa | - | - | - | - |
| 1777227901 | 21.11° C | 96% | 1021.2 hPa | - | - | - | - |
| 1777227000 | 21.67° C | 91% | 1021.1 hPa | - | - | - | - |
| 1777226103 | 22.22° C | 89% | 1021.2 hPa | - | - | - | - |
| 1777225200 | 22.78° C | 85% | 1021 hPa | - | - | - | - |
| 1777224300 | 22.22° C | 88% | 1021.1 hPa | - | - | - | - |
| 1777223400 | 21.67° C | 93% | 1021.2 hPa | - | - | - | - |
| 1777222538 | 22.22° C | 87% | 1021.3 hPa | - | - | - | - |
| 1777222501 | 22.22° C | 87% | 1021.3 hPa | - | - | - | - |
| 1777221600 | 22.78° C | 88% | 1021.4 hPa | - | - | - | - |
| 1777220701 | 23.89° C | 77% | 1021.5 hPa | - | - | - | - |
| 1777219868 | 24.44° C | 62% | 1021.5 hPa | - | - | - | - |
| 1777219836 | 24.44° C | 62% | 1021.5 hPa | - | - | - | - |
| 1777219799 | 24.44° C | 62% | 1021.5 hPa | - | - | - | - |
| 1777218899 | 25° C | 64% | 1021.4 hPa | - | - | - | - |
| 1777217999 | 23.33° C | 62% | 1021.4 hPa | - | - | - | - |
| 1777217102 | 23.89° C | 76% | 1021.6 hPa | - | - | - | - |
| 1777216239 | 23.33° C | 84% | 1021.5 hPa | - | - | - | - |
| 1777216198 | 23.33° C | 84% | 1021.5 hPa | - | - | - | - |
| 1777215306 | 22.78° C | 76% | 1021.5 hPa | - | - | - | - |
* Rain since midnight (hover to see other rain measurements)
** Current wind speed in m/s (hover to see current wind gust speed)